Location: Newark
(13.6797°N, 8.5297°E)
Time: 05:51:18
(UTC+00:00)

Altair - Pass Details

Date: 29 January 2020
Orbit: 1502 x 1682 km, 47.2° (Epoch: 19 February)

Event Time Altitude Azimuth Distance (km) Brightness Sun altitude
Rises 03:54:05 0° 207° (SSW) 4,715 9.9 -28.8°
Reaches altitude 10° 03:57:12 10° 202° (SSW) 3,755 9.4 -28.0°
Maximum altitude 04:06:25 53° 128° (SE) 1,911 8.2 -25.8°
Drops below altitude 10° 04:15:58 10° 55° (NE) 3,893 10.1 -23.6°
Sets 04:19:15 0° 50° (NE) 4,898 10.6 -22.8°
